Probability
0 0 0 0 0 0 0 0 0 0 0 0 0 0 0 0 0 0 0 3 3 3 6 3 3 3 3 3 3 3 6 6 3 13 13 10 13 13 16 16 19 16 13 23
0 0 0 0 0 0 0 0 0 0 0 0 0 0 0 0 0 0 0 0 3 0 3 6 13 6 3 3 6 6 6 6 6 6 6 13 13 13 13 16 16 16 16 13
0 0 0 0 0 0 0 0 0 0 0 0 0 0 0 0 0 0 0 0 0 0 3 13 10 6 6 3 6 6 6 3 3 6 13 16 16 16 19 16 16 16 16 19
0 0 0 0 0 0 0 0 0 0 0 0 0 0 0 0 0 3 3 3 3 0 3 13 13 13 6 3 3 3 6 10 6 13 16 16 16 23 16 13 13 16 16 16
0 0 0 0 0 0 0 0 0 0 0 0 0 0 0 0 0 0 3 3 3 3 6 13 13 10 10 6 3 6 10 10 13 16 19 16 23 16 16 13 16 13 10 13
0 0 0 0 0 0 0 0 0 0 0 0 0 0 0 0 0 0 0 3 3 6 10 13 13 13 10 3 6 6 13 6 10 16 19 16 19 10 19 19 16 16 13 6
0 0 0 0 0 0 0 0 0 0 0 0 0 0 0 0 0 0 0 0 3 3 10 16 16 13 10 3 3 6 10 10 13 23 23 13 16 16 23 26 23 23 23 19
0 0 0 0 0 0 0 0 0 0 0 0 0 0 0 0 0 0 0 0 3 3 10 13 16 13 13 3 3 10 10 13 16 23 32 26 23 26 26 26 19 23 26 23
0 0 0 0 0 0 0 0 0 0 0 0 0 0 0 0 0 3 3 3 3 6 10 10 13 10 10 3 3 13 13 16 19 29 32 29 23 29 29 29 32 32 29 29
0 0 0 0 0 0 0 0 0 0 0 0 0 0 0 0 0 0 6 6 6 6 10 13 16 16 16 13 13 10 13 23 26 26 29 32 23 32 39 39 32 35 32 32
0 0 0 0 0 0 0 0 0 0 0 0 0 0 0 3 3 3 3 6 6 10 6 10 13 16 16 23 19 16 23 26 29 35 35 32 32 32 32 35 32 35 39 32
0 0 0 0 0 0 0 0 0 0 0 0 0 0 3 10 3 6 6 10 6 6 6 13 16 16 19 19 19 19 32 35 39 32 32 32 32 32 26 29 32 32 32 32
0 0 0 0 0 0 0 0 0 0 0 0 0 0 6 10 13 10 16 19 13 13 10 13 13 16 16 19 23 35 35 39 39 35 35 29 32 32 32 26 29 35 29 26
0 0 0 0 0 0 0 0 0 0 0 0 0 3 6 10 10 13 19 16 16 16 16 19 23 16 16 19 32 35 39 39 35 32 29 29 35 32 29 29 32 32 32 29
0 0 0 0 0 0 0 0 0 0 0 0 0 3 6 6 10 10 19 23 26 23 23 26 26 23 23 29 32 39 39 35 32 32 29 35 35 29 29 29 32 29 26 23
0 0 0 0 0 0 0 0 3 3 3 6 6 6 6 6 6 6 10 23 23 23 23 29 29 35 29 32 29 29 29 26 26 29 29 29 23 23 23 19 19 19 16 16
0 0 0 0 0 0 0 0 3 6 6 3 6 6 10 10 10 6 13 13 19 23 23 23 35 26 29 26 26 32 19 13 23 23 26 23 23 23 19 16 19 19 16 16
0 0 0 0 0 0 0 0 0 3 3 3 3 6 10 10 10 6 6 10 13 23 23 23 26 29 29 23 16 13 10 16 29 26 26 26 23 23 19 16 19 19 16 13
0 0 0 0 0 0 0 0 3 3 6 6 6 6 6 6 10 10 16 16 13 19 19 23 26 26 19 10 10 3 10 13 16 23 23 26 26 23 19 16 13 13 13 6
0 0 0 0 0 0 0 0 0 3 6 6 3 0 6 13 10 10 16 19 23 19 19 23 19 23 13 10 3 6 10 13 13 13 23 23 16 16 13 10 10 10 10 6
0 0 0 0 0 0 0 3 0 0 3 6 3 3 6 10 10 10 13 19 19 19 19 19 19 19 13 10 6 6 6 6 6 10 10 13 13 10 13 10 10 10 10 3
0 0 0 0 0 0 3 6 0 0 6 6 3 3 6 10 13 13 16 13 16 16 13 10 16 13 6 6 6 6 6 6 6 10 10 10 10 13 6 6 6 6 6 3
0 0 0 0 3 3 3 3 3 3 3 6 3 6 10 16 16 10 10 10 13 16 13 10 10 13 10 6 6 6 6 6 6 3 10 10 10 10 10 6 3 3 0 0
0 0 0 3 6 6 6 3 6 6 6 10 6 10 10 10 10 10 6 13 13 10 16 13 16 13 10 6 10 6 10 6 6 3 0 3 6 6 6 6 3 3 0 0
3 0 3 3 0 3 6 6 6 6 6 6 6 6 3 10 10 6 6 10 10 13 13 16 16 13 3 6 6 6 10 3 3 0 0 0 0 6 6 6 6 6 3 3
3 0 3 3 0 3 6 6 6 6 6 10 10 6 10 13 10 10 10 10 13 13 16 16 16 16 6 6 3 3 3 3 3 0 0 0 0 0 0 6 6 0 0 0
Height
5894 5898 5899 5902 5903 5905 5906 5907 5908 5908 5908 5908 5908 5909 5909 5909 5909 5908 5907 5906 5905 5904 5903 5902 5901 5900 5899 5898 5898 5897 5897 5896 5895 5894 5893 5892 5891 5890 5890 5889 5888 5887 5886 5885
5893 5896 5899 5900 5901 5903 5905 5906 5908 5908 5909 5909 5909 5909 5909 5909 5909 5909 5908 5907 5906 5905 5904 5904 5903 5902 5901 5900 5899 5899 5898 5897 5896 5895 5894 5894 5893 5892 5891 5890 5889 5888 5887 5886
5891 5895 5896 5898 5900 5902 5903 5906 5907 5908 5908 5908 5909 5909 5910 5910 5909 5909 5909 5908 5907 5906 5905 5905 5904 5903 5902 5901 5900 5900 5899 5898 5898 5897 5896 5895 5894 5893 5892 5891 5890 5889 5888 5887
5887 5890 5893 5895 5898 5900 5902 5904 5906 5907 5907 5908 5909 5909 5910 5909 5909 5909 5909 5908 5908 5907 5906 5906 5905 5904 5903 5902 5901 5900 5900 5899 5898 5897 5897 5896 5895 5894 5893 5892 5891 5890 5889 5888
5884 5887 5890 5893 5896 5898 5900 5902 5903 5905 5906 5907 5907 5908 5910 5909 5909 5909 5909 5909 5908 5907 5907 5906 5905 5905 5904 5903 5902 5901 5900 5900 5899 5898 5897 5897 5896 5895 5894 5893 5892 5890 5889 5888
5880 5883 5886 5890 5893 5895 5897 5900 5901 5902 5903 5905 5906 5907 5908 5909 5909 5909 5909 5908 5908 5908 5907 5906 5906 5905 5904 5903 5902 5902 5901 5900 5899 5899 5898 5897 5896 5895 5895 5893 5892 5891 5890 5888
5874 5878 5882 5885 5888 5891 5893 5896 5898 5899 5900 5902 5904 5905 5907 5908 5908 5908 5908 5908 5908 5907 5907 5906 5906 5905 5904 5903 5903 5902 5901 5901 5900 5899 5898 5897 5897 5896 5895 5894 5893 5891 5890 5888
5870 5874 5878 5881 5884 5887 5890 5893 5895 5897 5898 5900 5901 5903 5906 5906 5906 5907 5907 5907 5907 5907 5906 5906 5905 5904 5904 5903 5903 5902 5902 5901 5900 5899 5898 5898 5897 5896 5895 5894 5892 5891 5890 5888
5865 5870 5874 5877 5880 5883 5886 5888 5892 5894 5895 5897 5898 5901 5903 5904 5905 5905 5906 5905 5905 5905 5905 5905 5904 5904 5903 5903 5902 5902 5902 5901 5900 5899 5898 5897 5896 5895 5894 5893 5892 5890 5889 5888
5859 5864 5869 5872 5875 5878 5882 5885 5887 5889 5891 5893 5896 5898 5900 5901 5902 5903 5903 5904 5904 5904 5903 5903 5903 5902 5902 5902 5901 5901 5901 5900 5899 5898 5897 5896 5894 5894 5893 5892 5891 5889 5888 5887
5853 5858 5863 5866 5869 5873 5877 5880 5882 5885 5887 5890 5892 5897 5898 5899 5900 5901 5901 5902 5902 5902 5902 5901 5901 5901 5900 5900 5900 5900 5899 5899 5898 5897 5896 5894 5893 5892 5892 5891 5889 5888 5886 5885
5847 5852 5856 5860 5865 5868 5871 5875 5878 5881 5883 5886 5888 5894 5894 5896 5896 5898 5898 5899 5899 5899 5899 5899 5899 5899 5898 5898 5898 5897 5897 5897 5896 5895 5894 5893 5892 5891 5890 5889 5888 5886 5885 5883
5841 5845 5849 5854 5859 5862 5865 5869 5873 5877 5879 5881 5884 5890 5890 5892 5893 5894 5895 5896 5896 5896 5897 5896 5896 5896 5896 5896 5896 5895 5895 5894 5894 5893 5892 5891 5890 5889 5888 5887 5886 5884 5882 5880
5834 5838 5843 5848 5853 5857 5860 5864 5868 5871 5874 5876 5880 5884 5886 5888 5889 5891 5892 5892 5893 5893 5893 5894 5894 5894 5894 5894 5893 5893 5893 5892 5891 5890 5889 5888 5888 5887 5885 5884 5883 5881 5879 5878
5827 5831 5836 5841 5846 5851 5855 5859 5862 5865 5869 5872 5875 5878 5882 5884 5885 5887 5888 5888 5889 5889 5890 5890 5890 5890 5890 5890 5890 5890 5889 5889 5888 5887 5886 5885 5884 5883 5882 5880 5879 5877 5876 5875
5820 5825 5830 5834 5839 5844 5848 5852 5856 5860 5863 5866 5870 5873 5876 5879 5881 5882 5883 5884 5885 5885 5886 5886 5886 5886 5886 5886 5886 5886 5886 5885 5884 5884 5883 5881 5880 5879 5878 5876 5875 5873 5872 5870
5814 5819 5824 5828 5833 5837 5840 5845 5850 5854 5857 5861 5864 5869 5871 5873 5875 5877 5878 5879 5880 5880 5881 5881 5882 5882 5882 5882 5882 5881 5881 5881 5880 5879 5878 5877 5876 5875 5873 5872 5871 5869 5868 5866
5809 5813 5818 5822 5827 5830 5837 5840 5844 5848 5852 5855 5859 5863 5866 5868 5870 5871 5873 5874 5874 5875 5876 5876 5877 5877 5877 5876 5876 5876 5876 5875 5875 5874 5874 5873 5871 5870 5868 5867 5866 5865 5863 5861
5804 5807 5811 5816 5819 5824 5830 5833 5837 5841 5845 5849 5853 5856 5859 5862 5864 5866 5867 5868 5869 5869 5870 5871 5871 5871 5871 5871 5872 5871 5871 5869 5869 5869 5869 5868 5866 5865 5863 5862 5861 5859 5858 5856
5797 5801 5806 5809 5813 5817 5824 5828 5831 5836 5839 5843 5846 5849 5852 5855 5857 5860 5861 5862 5863 5864 5864 5865 5865 5865 5865 5865 5866 5865 5865 5863 5863 5864 5863 5862 5861 5859 5858 5857 5855 5854 5853 5851
5791 5795 5799 5803 5807 5811 5817 5821 5825 5830 5833 5837 5839 5842 5845 5848 5851 5853 5854 5856 5857 5858 5858 5859 5859 5859 5860 5860 5860 5860 5859 5858 5858 5857 5857 5856 5855 5853 5852 5851 5850 5849 5847 5845
5786 5790 5794 5798 5801 5807 5811 5814 5818 5822 5825 5829 5832 5835 5838 5841 5843 5845 5847 5849 5850 5851 5852 5852 5853 5853 5853 5853 5853 5853 5852 5852 5850 5850 5850 5849 5849 5847 5846 5845 5843 5842 5840 5838
5781 5785 5789 5793 5798 5801 5804 5807 5811 5814 5818 5821 5824 5827 5830 5833 5835 5837 5839 5841 5843 5844 5845 5845 5846 5846 5846 5846 5846 5846 5846 5844 5844 5843 5843 5843 5842 5840 5839 5838 5837 5835 5833 5832
5775 5779 5783 5787 5790 5794 5797 5800 5804 5807 5810 5813 5817 5820 5822 5825 5828 5830 5831 5833 5834 5836 5837 5837 5838 5838 5838 5838 5838 5838 5838 5837 5837 5836 5836 5835 5834 5833 5832 5831 5830 5828 5826 5825
5769 5773 5776 5780 5784 5787 5790 5794 5797 5800 5803 5806 5809 5812 5815 5817 5819 5821 5823 5824 5825 5827 5828 5829 5829 5830 5830 5830 5830 5830 5830 5830 5829 5829 5828 5827 5826 5825 5824 5823 5822 5820 5819 5817
5763 5767 5771 5774 5778 5781 5784 5787 5791 5794 5796 5799 5802 5804 5807 5809 5811 5812 5814 5815 5816 5817 5818 5819 5820 5821 5821 5821 5821 5821 5821 5821 5821 5820 5819 5819 5817 5817 5816 5815 5814 5812 5810 5809
Wind_Speed
17 15 14 12 11 9 7 6 4 4 3 2 3 3 4 4 6 7 8 8 9 10 10 10 10 10 10 10 9 9 10 10 10 10 10 9 8 8 8 9 8 8 8 7
19 16 15 14 13 12 10 8 6 5 4 3 2 2 2 2 4 6 7 7 8 8 9 9 9 9 9 9 9 9 9 9 9 9 9 9 8 8 8 8 8 8 8 7
20 18 17 16 15 14 12 9 8 7 7 6 4 2 1 2 3 4 6 6 6 6 7 7 7 8 8 9 8 8 9 8 8 8 8 8 8 8 7 7 8 8 8 7
24 22 20 19 17 16 14 12 10 10 10 8 7 5 2 1 1 3 4 5 6 5 5 6 6 6 7 7 7 7 7 8 8 8 8 8 8 8 8 8 8 8 8 8
25 24 22 20 18 17 15 14 13 12 11 10 9 7 4 2 1 2 3 4 4 4 4 4 5 5 5 6 6 6 7 8 8 8 8 8 8 9 9 9 9 9 9 8
27 26 25 23 21 20 18 18 17 15 14 13 10 9 6 4 2 3 3 3 3 3 3 3 4 3 4 4 4 5 6 7 7 7 7 7 7 8 8 9 9 9 9 9
28 28 27 25 24 23 22 21 20 19 17 15 13 11 7 5 4 4 3 3 3 3 3 3 3 3 4 4 4 5 5 6 7 7 7 6 6 7 8 8 9 9 9 9
28 28 28 27 26 25 24 23 22 20 19 17 16 13 9 8 6 6 5 6 6 5 4 3 4 4 4 4 3 4 5 5 5 6 6 6 6 7 8 8 9 9 9 9
28 28 28 28 27 27 26 25 23 22 21 20 17 15 13 11 9 9 8 7 7 7 6 6 4 4 4 4 4 4 4 4 5 5 6 6 7 8 7 8 9 10 11 11
28 28 28 28 29 29 28 26 26 25 24 22 19 17 15 14 11 11 9 8 8 8 8 7 6 6 5 5 5 5 5 4 4 5 6 8 8 9 9 9 10 11 11 11
29 29 29 30 31 30 29 28 27 27 26 23 22 18 16 14 12 11 11 11 11 10 9 9 8 7 6 7 6 6 6 5 5 6 7 8 9 9 9 10 11 12 12 13
31 31 31 32 31 31 30 29 28 27 26 24 23 20 17 16 14 13 12 13 12 12 11 10 10 8 7 7 7 7 7 7 7 8 9 9 9 10 10 11 12 13 14 14
33 33 33 33 34 33 32 31 30 29 28 27 25 22 19 17 15 14 14 14 14 13 12 11 11 9 9 8 8 8 8 8 8 10 10 11 11 11 12 12 13 13 14 15
33 34 34 34 34 34 33 32 31 31 31 29 26 23 21 19 18 16 15 16 15 14 14 14 13 12 11 10 10 9 9 10 10 10 11 12 13 13 13 14 15 15 15 15
33 34 34 33 34 35 35 34 33 33 32 30 27 26 23 20 19 17 17 17 17 16 15 15 14 13 12 12 12 12 12 12 12 12 12 13 14 14 15 15 16 16 17 17
33 34 33 33 34 35 36 35 35 34 33 31 28 27 25 23 21 19 19 18 18 17 17 16 15 14 13 13 13 14 14 14 13 13 13 14 15 16 16 16 17 18 18 18
32 33 34 34 33 34 36 34 34 33 32 31 29 27 25 23 22 21 20 19 19 19 19 17 16 16 15 15 15 16 16 15 14 15 15 16 16 17 18 18 18 18 19 19
31 31 32 32 32 35 33 32 32 32 32 31 29 27 26 24 23 23 22 21 21 20 19 19 18 18 18 18 17 17 16 16 16 16 17 17 18 18 19 19 19 20 20 20
30 30 32 33 33 34 33 32 32 32 33 32 30 29 27 26 25 24 23 23 22 21 21 20 20 20 20 20 20 20 20 18 18 18 19 19 20 20 20 19 19 20 20 20
29 30 31 32 33 35 33 32 32 33 33 32 31 30 28 28 27 24 24 23 23 23 22 21 21 21 21 22 22 22 21 20 20 20 20 21 21 20 20 20 20 20 21 21
29 30 30 31 32 33 32 32 32 33 32 31 31 30 30 29 26 25 25 24 24 24 23 23 23 23 22 23 23 23 23 23 23 22 22 22 22 21 22 22 22 22 22 22
29 29 30 31 33 32 30 31 32 32 32 32 32 31 30 29 28 27 26 26 26 25 25 25 25 25 24 25 25 25 25 25 25 24 24 24 24 24 24 24 24 24 24 24
31 30 29 30 31 30 31 31 31 31 32 32 32 32 31 31 30 29 28 27 26 27 27 27 27 27 27 27 27 28 28 27 25 25 26 26 27 27 27 27 26 26 26 26
32 32 31 30 29 29 30 30 30 30 31 31 31 32 32 31 30 30 29 29 28 28 28 29 29 29 30 30 30 30 30 29 27 27 28 29 29 28 28 28 28 28 28 27
31 31 32 31 30 29 29 29 29 28 28 29 29 29 30 30 30 30 30 30 30 31 31 31 31 32 32 32 31 31 30 30 29 29 30 30 30 29 29 29 29 29 29 29
30 30 31 31 30 31 31 30 30 29 29 29 30 29 30 30 31 31 31 31 32 33 33 33 33 32 33 32 32 32 31 31 31 31 31 31 31 30 30 30 30 30 30 30
Wind_Direction
216 213 212 213 213 216 215 213 201 177 158 131 102 90 83 70 66 60 53 48 47 47 49 50 50 51 51 49 52 55 54 51 54 55 51 47 46 43 41 40 37 37 36 31
218 215 214 213 213 218 221 220 216 208 203 194 165 123 91 86 77 60 51 46 42 49 51 49 47 45 51 52 52 53 53 54 53 51 48 48 47 42 41 43 41 37 33 27
220 218 217 217 216 223 225 220 220 224 227 229 223 203 132 107 81 57 47 40 42 53 52 48 47 45 50 51 52 51 51 50 50 47 46 47 42 37 32 32 31 31 29 23
220 219 219 220 222 226 228 226 222 227 235 239 243 236 216 203 57 49 36 32 37 48 50 44 44 45 49 48 49 49 47 46 47 47 44 40 41 40 34 30 27 25 19 15
222 222 221 222 224 229 231 230 229 231 238 240 240 245 232 234 297 352 9 13 22 31 39 38 42 44 45 42 40 42 42 40 43 43 42 39 37 33 32 30 25 19 15 12
222 222 223 223 225 229 230 230 232 232 238 242 241 244 234 240 282 302 328 345 1 9 20 26 32 34 31 26 27 31 32 32 35 33 34 36 32 25 22 20 17 14 14 14
221 223 224 224 224 227 229 230 232 232 237 243 242 243 233 238 265 279 297 300 311 317 328 353 2 6 11 11 14 16 15 23 26 30 30 28 22 16 11 7 5 3 3 2
223 222 224 224 225 227 229 232 236 238 240 243 243 246 240 241 252 265 280 280 281 289 295 315 339 346 345 353 3 4 7 9 12 18 23 20 11 4 360 355 353 352 350 349
224 223 223 225 226 227 228 231 236 241 244 245 245 246 242 244 254 262 271 274 276 282 288 295 313 324 327 329 328 338 350 1 4 1 0 357 352 348 343 341 339 341 343 342
223 222 221 223 224 227 229 231 234 239 243 246 247 249 251 250 254 260 266 270 272 276 278 281 292 303 309 315 309 317 327 339 347 344 340 336 334 340 340 337 335 333 332 330
223 223 221 222 223 225 227 229 234 239 243 247 249 250 254 255 255 259 265 270 269 271 277 277 280 287 288 293 294 292 300 311 320 327 333 328 322 323 328 330 331 329 325 323
225 225 224 223 222 224 228 230 233 238 242 246 251 252 254 257 258 260 264 266 265 265 269 272 273 278 281 284 283 282 286 295 302 308 313 320 322 323 323 324 323 323 324 323
225 225 225 224 223 224 226 228 231 236 241 246 251 255 256 259 260 264 265 263 263 265 266 270 270 271 277 279 279 279 281 287 293 296 299 302 309 314 317 318 318 320 321 322
226 227 227 227 226 226 227 229 231 235 239 244 249 254 256 257 259 264 264 262 264 267 268 270 272 269 270 273 274 276 279 282 288 290 294 297 302 307 310 311 311 314 316 317
225 226 227 227 227 228 230 233 235 237 240 244 249 252 254 256 257 262 264 261 263 264 266 269 269 268 272 274 273 276 279 282 284 285 289 294 297 300 303 305 307 309 310 312
226 226 226 227 228 230 232 233 236 238 240 243 247 249 253 254 256 259 261 262 263 264 266 269 266 266 273 274 275 277 278 278 281 287 290 292 296 298 299 299 301 303 305 308
225 227 227 229 229 231 234 234 235 237 239 242 246 249 252 254 257 258 260 259 259 262 264 265 266 266 270 272 275 272 274 277 280 285 289 292 295 299 300 299 298 299 301 305
228 228 228 230 229 232 234 234 234 236 238 241 245 246 249 252 256 258 259 259 260 261 261 263 265 266 266 269 272 272 270 273 278 282 287 290 293 296 297 296 295 295 297 301
228 230 230 230 231 233 234 233 234 236 238 241 245 247 249 253 255 257 259 260 258 257 258 262 265 267 269 269 270 273 274 273 274 278 284 289 293 294 295 294 294 294 296 298
228 230 231 231 232 234 235 236 237 239 242 242 245 247 248 252 254 255 258 259 257 259 259 263 266 268 269 268 274 273 274 278 280 280 286 289 291 292 293 293 294 295 296 298
229 229 231 233 235 237 238 239 240 241 242 243 246 247 248 252 254 254 255 257 257 258 259 261 264 267 270 272 273 275 275 279 280 280 284 288 288 289 290 290 291 292 293 295
226 229 232 234 236 238 240 242 242 242 242 243 245 246 250 253 255 255 254 254 254 255 257 260 263 266 269 273 275 276 275 279 279 278 283 287 289 289 289 289 290 289 291 292
228 231 234 236 240 242 243 244 244 243 244 244 245 247 250 252 254 256 255 254 254 257 257 259 262 266 269 272 273 274 277 277 276 278 281 284 286 288 289 289 290 290 290 291
231 233 235 237 240 242 243 244 246 245 243 245 246 248 250 251 253 256 255 254 255 256 258 261 265 268 270 271 271 272 275 276 277 279 281 282 284 285 287 288 288 289 290 290
232 234 236 238 240 242 244 244 246 245 246 247 248 250 250 252 254 256 257 257 256 256 259 261 264 267 269 270 271 273 274 274 274 278 281 281 282 282 284 285 286 287 287 289
233 235 237 239 240 243 244 245 246 247 247 248 248 249 250 252 253 255 258 260 259 260 260 262 263 266 267 267 268 269 271 272 274 277 279 280 280 280 281 284 285 285 286 289